RH
47 46 46 46 48 47 49 52 53 53 54 53 53 54 53 52 52 51 51 51 52 49 43 40 41 42 42 39 36 35 32 30 33 38 39 39 38 32 28 33 40 46 48 50 51 51 51 51 52 53 52 48 43 39 37 37 37 39 40 41 42 42 42 42 42 43 43 44 44 44 44 44 43 42 41 41 41 41 44 46 49 52 54 56 57
50 48 46 48 50 49 50 51 51 52 53 54 56 55 52 50 50 53 54 54 51 46 41 39 39 39 38 37 35 34 31 30 34 39 39 38 39 34 27 28 34 41 46 47 50 51 51 51 52 54 53 50 46 43 40 38 37 37 38 38 38 38 39 39 39 39 39 40 41 42 44 45 46 46 46 45 45 45 46 46 47 48 50 51 53
50 50 49 48 49 49 50 50 50 52 54 55 56 55 53 51 51 55 57 54 49 44 41 40 38 35 35 35 34 32 29 30 34 40 40 40 40 35 26 25 29 36 42 44 46 48 50 51 52 53 53 51 47 45 44 42 41 41 40 39 38 37 38 38 38 38 39 39 41 42 43 45 47 47 48 48 48 48 48 48 48 48 49 50 49
49 50 49 48 49 50 51 51 51 52 53 55 54 52 53 53 52 53 53 52 48 45 44 41 37 33 34 35 33 30 28 31 36 39 41 41 40 36 30 26 26 32 38 41 43 43 45 47 49 49 49 49 49 47 46 47 47 46 45 45 44 44 44 43 42 43 44 44 44 45 46 46 48 49 49 49 49 49 48 48 47 47 48 47 46
48 48 49 48 49 51 51 50 50 51 51 54 54 51 51 52 53 51 49 50 51 50 48 44 39 35 34 33 32 28 29 33 37 39 40 41 40 38 37 33 31 33 36 39 41 41 42 43 45 46 45 45 47 47 47 48 48 49 48 48 48 48 48 47 48 48 48 49 49 49 49 49 50 50 49 49 49 49 48 48 47 47 46 45 44
46 47 49 48 49 50 51 50 51 51 50 52 54 51 49 50 52 53 51 51 54 53 51 49 45 42 38 33 31 26 29 37 39 40 40 41 41 39 39 39 39 38 38 39 39 40 41 41 42 42 42 41 43 45 46 46 46 47 47 47 47 47 47 47 48 48 48 48 49 50 49 49 50 50 48 47 48 48 48 49 49 49 48 48 47
45 46 49 49 49 50 51 51 52 53 51 52 54 51 48 47 48 51 53 53 53 50 48 48 48 48 44 37 31 26 30 38 39 39 40 41 42 39 38 40 40 40 40 40 39 40 40 40 41 41 40 40 41 42 43 43 43 44 44 45 45 45 45 45 45 45 45 45 46 47 46 47 49 49 48 47 47 48 48 49 50 50 50 49 50
40 43 47 48 49 51 50 50 51 51 52 53 52 52 49 45 44 49 55 53 50 46 42 42 44 47 46 41 35 28 31 36 37 38 40 44 45 42 40 39 39 42 41 40 38 38 40 40 41 42 42 41 42 43 43 44 44 43 44 44 43 43 43 44 44 43 43 43 43 44 45 45 46 46 47 47 47 48 50 49 49 49 49 49 50
35 38 43 46 49 52 49 47 48 48 51 53 50 50 50 45 42 47 54 50 45 41 40 40 42 45 46 43 40 34 34 38 38 38 41 47 49 45 42 40 39 41 43 42 39 39 40 41 41 42 43 42 42 43 44 45 45 44 44 43 43 43 43 44 44 43 43 43 43 45 45 44 45 46 48 52 52 51 51 49 47 48 48 48 48
31 33 39 45 49 53 50 47 48 47 49 51 48 47 48 46 43 45 50 48 41 40 41 43 44 45 46 46 44 40 41 43 42 40 41 46 48 45 43 41 39 39 41 42 41 39 38 39 40 42 43 43 42 43 44 44 44 44 44 42 42 42 42 42 42 43 43 44 44 44 45 44 45 46 47 52 53 50 48 46 45 44 45 46 45
30 31 36 43 48 52 51 47 47 46 47 48 47 46 45 43 42 42 45 45 42 41 42 46 48 46 45 47 48 46 45 47 46 43 41 41 43 44 42 40 37 36 36 37 38 38 37 37 37 38 40 40 41 43 43 43 43 43 43 43 43 43 42 41 40 40 40 41 43 44 44 43 42 44 45 46 48 46 45 44 42 42 43 44 44
28 29 33 40 45 49 49 47 47 47 47 46 45 45 43 41 40 38 40 42 41 41 42 46 47 45 43 45 49 49 48 50 50 48 45 41 41 43 41 38 35 33 31 31 32 34 35 35 32 32 35 35 38 40 41 43 43 43 44 44 44 42 40 39 41 42 42 41 42 43 43 42 41 42 43 43 44 43 41 39 37 37 37 37 37
27 29 32 37 41 46 48 46 45 47 47 45 43 42 40 39 38 37 38 39 39 40 41 41 43 41 41 43 44 46 48 50 51 50 48 46 45 43 41 39 35 32 29 28 29 31 32 33 32 32 33 33 33 34 36 39 40 40 40 39 38 37 35 37 41 46 49 47 45 45 44 42 40 38 38 38 39 37 35 33 31 29 28 27 27
27 28 31 34 37 42 45 43 42 45 45 44 44 41 38 37 38 38 38 39 40 41 39 38 39 38 40 41 39 40 44 49 52 51 49 48 47 45 42 40 35 32 31 28 28 29 30 31 33 34 34 33 32 30 31 32 33 33 33 33 35 36 36 38 41 45 48 46 43 43 40 37 36 34 33 33 32 30 27 26 23 22 21 20 20
29 28 29 31 32 36 39 40 41 43 42 43 44 41 38 37 37 37 39 40 40 40 39 37 37 37 38 40 38 37 40 44 47 48 49 47 47 47 45 43 39 36 34 30 27 27 26 27 28 29 31 34 34 32 31 30 30 30 32 33 35 36 35 36 38 38 39 39 37 36 34 32 32 30 29 27 25 23 21 20 19 19 19 19 20
30 28 28 29 29 31 35 39 41 42 41 44 45 41 38 37 36 37 39 39 38 38 40 40 37 37 39 40 39 39 40 40 41 42 44 43 43 44 43 44 44 42 40 37 34 30 27 28 29 29 31 33 34 36 36 35 34 35 35 35 33 30 30 32 32 32 32 33 33 32 31 30 28 25 23 21 20 19 19 19 20 21 22 23 24
30 28 27 28 27 29 32 36 41 41 40 42 44 41 38 37 36 38 39 39 39 39 42 43 39 37 39 40 42 43 41 40 40 40 41 41 41 41 41 42 43 43 43 42 41 38 34 34 35 35 35 35 36 37 38 38 37 36 34 33 31 27 24 24 25 25 26 27 27 26 25 24 21 20 19 19 20 21 22 23 24 25 26 27 28
29 27 26 26 26 27 29 34 38 40 39 40 41 41 39 37 36 38 39 40 41 41 41 43 41 38 37 39 41 43 41 40 42 42 43 43 43 43 42 42 41 42 42 42 42 41 39 39 39 38 38 37 37 36 37 36 35 34 32 30 30 26 23 22 22 21 22 22 22 21 20 19 20 21 23 25 26 27 28 28 29 30 31 31 33
28 27 25 24 25 26 27 30 34 37 38 39 39 39 38 37 36 37 38 41 42 41 41 41 41 39 38 39 41 42 41 40 42 43 44 45 45 44 44 43 42 42 42 42 41 41 40 40 40 39 39 37 37 36 35 35 34 33 31 30 30 28 25 24 23 23 23 22 21 21 21 23 25 26 28 28 29 29 30 30 31 32 33 34 34
27 26 25 23 23 25 26 29 33 35 37 38 38 38 38 37 37 37 38 40 41 42 42 41 41 41 40 42 44 44 43 41 41 42 43 44 45 45 45 44 42 43 44 42 40 39 39 41 40 39 39 38 38 37 35 35 34 32 31 31 31 29 27 26 26 26 26 25 25 26 27 27 28 27 26 27 27 28 30 31 32 33 33 34 35
26 25 26 24 23 24 24 27 31 34 36 36 36 37 38 38 36 37 37 39 40 41 43 41 41 42 41 43 46 45 45 42 41 40 40 41 43 44 45 42 40 42 44 42 40 40 39 40 39 39 39 38 38 38 36 35 33 32 31 31 30 29 28 27 27 28 29 29 30 30 30 29 28 26 27 28 29 30 31 32 33 33 34 34 34
24 24 26 26 24 23 24 25 28 32 35 36 35 34 35 37 36 35 36 38 39 39 41 42 42 43 42 43 46 47 46 43 42 42 40 40 41 42 43 42 40 40 41 41 40 39 39 39 38 37 38 37 37 38 38 36 34 33 32 31 30 30 30 29 29 30 31 31 31 31 32 31 30 30 30 31 31 31 32 32 32 31 32 31 32
24 24 25 27 25 23 24 24 26 30 34 36 36 33 33 34 35 36 36 37 39 39 40 41 41 43 43 42 44 47 47 45 43 43 43 43 43 44 44 44 42 41 40 39 39 38 38 37 37 36 37 36 35 36 37 37 36 35 33 32 30 29 30 30 30 31 32 32 33 34 34 35 35 34 33 31 31 31 31 30 30 29 29 30 30
23 23 25 27 26 25 25 25 25 28 31 34 35 33 32 33 35 37 36 35 38 38 39 38 38 40 41 41 43 47 47 47 46 45 44 44 44 45 46 47 46 45 43 41 40 38 37 37 37 36 36 36 34 35 36 36 36 36 35 34 32 30 30 30 31 32 33 35 37 38 38 38 37 36 34 32 30 30 30 30 30 29 28 28 27
20 20 22 26 27 26 26 25 24 26 30 32 33 34 33 34 35 37 36 35 36 37 38 37 36 37 38 40 43 45 45 47 47 46 45 44 44 45 47 49 50 49 48 47 45 43 41 40 40 38 37 36 35 36 36 35 35 36 36 36 35 33 31 31 31 32 34 36 39 40 41 40 38 37 35 32 30 30 30 30 30 29 28 27 26
15 16 19 24 27 27 26 26 24 24 26 29 32 34 34 34 36 38 37 36 36 37 38 38 37 36 36 39 42 44 45 47 47 46 44 43 44 44 46 49 50 50 50 49 48 47 45 44 43 41 40 39 38 37 36 35 36 36 36 36 36 36 36 35 36 36 36 37 39 40 40 40 39 37 35 32 30 30 29 30 30 29 28 26 24
13 14 18 22 26 28 27 27 26 25 25 27 30 34 35 35 36 37 37 37 37 37 37 38 37 36 36 37 40 44 45 44 44 46 44 44 45 44 43 45 48 50 51 50 50 49 47 47 47 46 45 43 42 41 40 39 40 40 39 39 38 40 41 41 40 40 40 39 39 39 39 38 36 35 34 32 30 29 28 28 28 28 27 25 23
14 15 17 21 24 25 26 27 27 27 26 25 27 31 34 34 35 36 38 38 38 37 37 37 37 36 36 36 38 41 42 41 42 45 46 45 46 45 43 42 44 47 49 50 51 50 51 51 50 50 49 48 47 46 45 45 44 44 43 42 41 41 42 43 43 43 43 41 40 39 37 35 33 33 32 30 28 27 27 27 26 25 25 24 23
15 15 16 18 20 21 23 25 26 25 25 24 25 27 31 33 33 33 36 37 38 38 38 38 37 36 35 35 36 38 40 40 42 44 46 46 46 45 43 42 42 43 44 45 47 48 50 51 51 51 51 50 50 50 50 49 48 48 46 45 44 42 41 42 43 45 45 44 43 43 42 39 37 35 33 31 30 29 27 27 26 24 23 22 21
14 15 15 15 16 18 19 20 22 22 22 22 23 24 26 30 32 31 33 35 37 37 38 39 40 39 37 35 34 36 38 39 40 41 43 44 45 44 42 41 41 41 41 41 41 42 45 47 48 49 49 49 49 50 50 50 50 49 48 48 47 46 44 43 43 44 44 44 44 45 47 46 44 41 39 37 36 34 32 30 27 24 23 22 20
13 14 14 14 14 15 16 17 18 19 21 21 21 21 22 25 28 29 30 32 34 36 37 38 40 41 40 37 35 34 36 37 37 38 40 42 43 44 43 41 40 40 40 40 40 39 39 41 43 44 44 45 46 47 47 46 47 48 48 49 49 48 46 44 44 44 44 43 43 43 45 46 46 44 43 42 40 39 38 35 29 25 23 22 19
12 14 15 15 15 16 17 17 19 19 20 21 21 21 21 22 24 26 28 30 31 33 35 36 38 40 41 40 38 36 36 35 35 36 39 40 41 43 43 42 41 40 40 40 39 37 36 38 40 41 42 42 43 44 44 44 44 46 47 48 48 47 45 43 43 43 43 43 42 42 42 43 44 44 44 44 42 41 41 40 35 29 25 22 18
12 14 16 18 18 19 20 21 21 21 22 22 22 22 22 22 22 24 26 28 30 31 32 34 36 38 40 40 39 38 37 36 33 33 35 39 40 41 42 42 42 41 41 41 39 36 36 37 37 39 42 43 43 43 43 43 44 44 45 46 46 44 43 42 42 41 41 42 42 42 42 43 44 46 47 47 45 43 41 40 39 35 29 23 17
12 14 16 19 21 22 23 23 23 23 22 23 23 22 22 22 22 23 24 26 28 30 31 32 33 35 37 38 38 38 37 37 35 32 32 35 37 39 39 39 40 40 40 40 39 37 37 36 37 38 40 42 43 43 43 43 44 45 45 45 45 44 42 42 41 41 41 41 42 43 44 45 46 48 51 51 50 48 44 41 40 38 34 26 18
14 16 18 20 22 23 23 23 23 23 23 23 23 23 23 23 23 23 23 25 26 28 29 30 31 32 33 34 35 36 37 37 36 35 32 31 33 35 36 37 37 38 37 38 38 37 37 36 35 36 38 39 40 41 42 43 44 46 47 46 46 45 43 42 42 42 42 42 44 45 46 48 49 52 54 56 56 55 51 46 42 39 37 31 22
17 17 18 20 21 23 23 23 22 22 22 22 22 23 23 23 23 23 23 23 24 25 26 27 28 28 30 31 32 33 34 35 35 35 34 32 32 32 33 34 36 36 36 36 36 36 35 34 34 35 36 37 38 39 40 42 43 44 45 47 48 47 45 43 42 43 43 44 45 47 48 50 52 54 56 58 60 60 57 54 49 43 37 32 27
20 19 19 20 21 22 22 22 21 21 20 20 21 21 21 21 22 22 22 22 22 21 21 22 23 24 25 26 27 30 32 33 33 33 33 32 32 32 32 33 33 34 35 36 36 36 36 34 34 34 35 36 37 38 40 42 43 44 44 45 46 47 46 45 44 44 44 45 46 48 49 51 53 55 56 57 61 62 61 60 58 51 41 33 30
22 22 22 22 21 21 20 20 20 20 20 20 20 19 19 19 20 20 20 19 19 18 18 18 18 20 21 22 24 26 28 30 31 31 31 31 31 31 31 31 32 33 34 34 34 35 36 35 35 34 35 36 37 38 39 40 42 44 44 44 45 45 45 46 46 47 47 48 48 49 51 52 54 56 56 57 60 63 63 63 63 59 48 35 31
26 26 25 24 22 22 20 20 19 20 20 20 20 19 19 19 19 19 19 19 19 19 19 18 18 19 19 20 21 22 23 25 27 28 29 29 29 30 30 30 31 32 32 32 32 32 33 34 34 34 34 34 35 37 38 39 41 43 44 44 44 45 45 46 47 49 51 53 53 54 54 56 57 58 58 59 61 63 64 65 64 63 54 40 32
28 28 26 25 24 23 22 21 20 20 20 20 19 20 20 21 21 22 23 24 24 24 23 23 23 23 23 23 23 23 23 23 24 25 26 27 29 29 30 31 33 33 34 33 33 33 33 33 33 33 33 34 35 36 38 39 41 41 40 41 42 44 46 48 50 52 54 57 59 59 60 60 60 61 61 61 62 63 64 65 65 64 59 47 35
29 28 28 26 24 24 23 22 21 21 21 21 21 22 23 25 26 27 29 30 30 29 29 28 28 28 28 28 28 27 28 28 27 27 28 29 30 30 31 32 34 35 36 36 36 37 37 36 35 34 35 36 36 37 39 39 40 40 39 41 42 44 47 50 52 55 56 59 61 62 64 64 63 62 62 62 62 63 64 66 68 68 62 52 42
29 29 29 28 26 24 23 21 21 22 23 24 25 26 28 29 30 32 33 34 35 35 35 35 35 35 34 34 33 32 32 32 32 32 32 32 32 33 33 34 35 36 36 37 38 39 39 39 39 38 37 37 37 39 39 39 41 42 43 44 44 45 47 49 52 54 57 59 60 62 66 67 65 63 63 63 64 65 66 68 71 72 65 56 47
30 30 30 29 27 24 22 21 23 24 25 26 26 28 29 30 32 34 36 37 39 39 40 41 41 42 42 42 41 40 40 38 37 35 35 35 35 35 36 37 37 38 38 38 38 38 39 38 37 37 37 37 38 38 39 40 42 43 44 45 45 47 48 49 49 52 55 58 59 60 63 65 67 67 66 64 64 65 66 68 73 73 66 58 51
31 31 32 30 27 25 23 22 25 26 26 26 27 30 31 32 34 36 38 41 42 43 44 44 45 46 47 47 47 47 46 45 43 42 40 39 38 37 37 36 37 39 39 40 39 39 39 39 38 37 37 37 37 37 38 39 39 40 42 44 46 47 47 47 48 50 52 55 56 58 60 63 66 68 68 67 63 62 65 69 73 74 68 62 54
33 32 33 31 28 25 24 24 26 27 26 27 29 31 32 34 36 39 41 44 45 46 47 48 49 50 49 50 50 49 49 48 49 48 47 46 45 44 42 40 40 40 40 39 39 39 40 40 40 40 40 40 39 38 40 40 39 38 40 42 44 45 46 46 47 48 50 52 55 57 58 62 64 65 68 69 65 61 64 69 73 74 72 66 57
36 35 34 32 30 27 26 27 28 28 27 28 30 33 35 37 40 43 45 46 47 48 49 50 51 52 52 51 50 50 51 50 50 50 51 52 52 52 50 48 47 46 44 41 40 41 41 41 41 41 41 42 40 40 42 42 39 39 40 41 42 41 41 43 45 47 48 50 54 55 55 59 62 63 65 68 67 64 64 68 72 74 72 69 59
38 37 37 35 33 31 30 30 31 30 30 31 34 37 39 42 44 46 47 48 48 49 50 50 51 52 52 51 50 50 51 51 51 52 53 55 56 55 55 55 54 53 49 47 47 47 47 46 46 46 45 45 43 42 42 43 41 40 41 41 42 42 42 43 44 44 45 48 52 53 52 55 61 62 63 64 66 67 66 66 70 71 70 70 63
42 41 41 40 38 35 34 34 34 32 33 36 39 40 42 45 47 48 48 48 48 48 48 49 49 49 49 50 50 51 52 53 55 56 57 59 59 59 59 59 59 57 51 50 53 53 53 53 54 54 54 54 53 51 51 50 47 45 44 42 43 45 46 46 44 44 45 47 49 51 51 54 59 62 64 65 66 69 69 67 69 70 69 69 66
46 44 43 43 40 38 37 37 36 35 37 40 42 43 45 47 49 50 50 49 49 49 49 49 48 49 52 54 55 55 55 56 58 59 61 61 60 60 61 62 63 59 54 54 58 59 58 59 59 60 59 60 60 59 58 56 53 52 51 46 46 48 48 46 46 46 46 46 48 52 54 56 59 62 64 66 67 70 70 67 67 70 68 68 69
49 46 44 42 40 38 37 37 38 39 41 43 44 45 47 49 50 50 50 50 50 49 50 50 51 53 55 57 58 59 58 58 60 61 61 60 58 59 61 64 63 58 55 60 64 63 61 60 61 61 60 59 61 61 62 62 63 64 60 54 54 54 51 49 49 49 49 48 49 54 57 56 59 63 64 66 68 71 71 68 66 69 69 69 70
50 47 44 41 39 39 39 39 40 41 42 44 45 46 48 49 50 50 50 49 49 50 51 53 55 56 57 58 59 60 60 60 61 61 59 57 56 56 59 63 61 56 57 62 64 60 56 57 60 61 61 62 64 64 65 66 69 69 65 61 60 59 55 52 52 54 55 51 48 53 57 57 59 63 64 68 71 72 70 68 66 68 69 70 71